Regional Weather Roundup
Issued by NWS

Home | Current Version | Previous Version | Text Only | Print | Product List | Glossary Off
Versions: 1 2 3 4 5 6 7 8 9 10 11 12 13 14 15 16 17 18 19 20 21 22 23 24 25 26 27 28 29 30 31 32 33 34 35 36 37 38 39 40 41 42 43 44 45 46 47 48 49 50

989
ASUS43 KDMX 021608
RWRIA

WEATHER ROUNDUP FOR IOWA
NATIONAL WEATHER SERVICE DES MOINES IA
1100 AM CDT MON MAY 02 2016

NOTE: "FAIR" INDICATES FEW OR NO CLOUDS BELOW 12,000 FEET WITH NO
SIGNIFICANT WEATHER AND/OR OBSTRUCTIONS TO VISIBILITY.

* - THESE STATIONS ARE NOT NWS STATIONS...THUS NOT UNDER NWS
QUALITY CONTROL.  THEY ALSO DO NOT REPORT WEATHER SUCH
AS PRECIPITATION OR FOG.

IAZ001>003-012>014-020>022-031>034-043>046-021700-
   NORTHWEST IOWA

CITY           SKY/WX    TMP DP  RH WIND       PRES   REMARKS
CARROLL *      MOSUNNY   55  43  62 NE8       30.12S
CHEROKEE *     SUNNY     57  39  51 CALM      30.13S
DENISON *      SUNNY     59  39  47 N7        30.11S
LE MARS *      SUNNY     57  36  44 NW7       30.14S
ORANGE CITY *  SUNNY     57  39  51 NW5       30.12F
SHELDON *      SUNNY     57  37  47 CALM      30.11F
SIOUX CITY     SUNNY     59  44  57 CALM      30.14F
SPENCER        SUNNY     57  36  45 VRB3      30.12F
STORM LAKE *   SUNNY     57  37  47 N6        30.12F
$$

IAZ055>058-069>071-079>083-090>094-021700-
   SOUTHWEST IOWA

CITY           SKY/WX    TMP DP  RH WIND       PRES   REMARKS
AUDUBON *      MOSUNNY   55  46  71 N3        30.13F
CLARINDA *       N/A    N/A N/A N/A MISG        N/A
COUNCIL BLFS * SUNNY     55  45  67 N7        30.13F
CRESTON *      MOSUNNY   55  45  67 N9        30.13S
HARLAN  *      SUNNY     55  43  62 N8        30.16F
LAMONI         PTSUNNY   55  46  71 N10       30.11S
SHENANDOAH *   MOSUNNY   57  48  72 NE10      30.13F
$$

IAZ047>049-059>061-072>074-084-021700-
   CENTRAL IOWA

CITY           SKY/WX    TMP DP  RH WIND       PRES   REMARKS
AMES           CLOUDY    55  45  68 CALM      30.12S
ANKENY *       PTSUNNY   57  45  62 CALM      30.11F
BOONE *        CLOUDY    54  45  71 CALM      30.11S
CHARITON *     MOSUNNY   54  45  71 N7G14     30.11S
DES MOINES     PTSUNNY   57  42  57 N6        30.11F
GRINNELL*      MOSUNNY   54  45  71 N8        30.11S
KNOXVILLE *    MOSUNNY   55  45  67 N7        30.10S
MARSHALLTOWN     N/A     56  46  69 N6        30.11S
NEWTON *       MOSUNNY   55  45  67 NE9       30.11S
$$

IAZ004>006-015-016-023>025-035-036-021700-
   NORTH CENTRAL IOWA

CITY           SKY/WX    TMP DP  RH WIND       PRES   REMARKS
ALGONA *       MOSUNNY   57  45  62 VRB5      30.12S
CLARION *      CLOUDY    54  45  71 CALM      30.12S
ESTHERVILLE    SUNNY     58  39  49 VRB7      30.11F
FORT DODGE *   CLOUDY    55  45  67 E3        30.12F
MASON CITY     CLOUDY    55  43  63 SE5       30.13S
FOREST CITY *  PTSUNNY   55  37  50 CALM      30.12S
WEBSTER CITY * CLOUDY    52  46  82 MISG      30.11S
IOWA FALLS *   CLOUDY    57  45  62 CALM      30.12S
$$

IAZ007>011-017>019-026>030-037>042-050>054-066-021700-
   NORTHEAST IOWA

CITY           SKY/WX    TMP DP  RH WIND       PRES   REMARKS
CEDAR RAPIDS   CLOUDY    53  46  77 NE8       30.10S
CHARLES CITY * SUNNY     55  43  62 CALM      30.12S
CLINTON *      PTSUNNY   55  42  61 NE10      30.09S
DECORAH *      SUNNY     54  45  71 CALM      30.11S
DUBUQUE        MOSUNNY   55  43  63 N10       30.09F
MONTICELLO *   MOSUNNY   55  43  62 E6        30.10S
OELWEIN *      MOSUNNY   55  46  71 VRB5G12   30.11F
WATERLOO       MOSUNNY   57  45  64 E7        30.11F
$$

IAZ064-065-067-068-078-021700-
   EAST CENTRAL IOWA

CITY           SKY/WX    TMP DP  RH WIND       PRES   REMARKS
DAVENPORT      CLOUDY    54  45  71 NE12      30.09F
IOWA CITY      CLOUDY    52  42  69 E3        30.12S
MT. PLEASANT * CLOUDY    52  50  93 N9        30.10S
MUSCATINE *    CLOUDY    52  46  82 N5        30.11S
QUAD CITIES    CLOUDY    54  45  71 N8        30.08S
$$

IAZ062-063-075>077-085>089-095>099-021700-
   SOUTHEAST IOWA

CITY           SKY/WX    TMP DP  RH WIND       PRES   REMARKS
BURLINGTON     CLOUDY    51  47  86 NE10      30.08R
FAIRFIELD *    CLOUDY    52  46  82 NE8       30.10S
FORT MADISON * CLOUDY    48  46  93 NE9       30.09S
KEOKUK *       CLOUDY    52  48  87 VRB3      30.08S
OSKALOOSA *    CLOUDY    54  46  76 NE13      30.11R
OTTUMWA        PTSUNNY   53  44  71 N10       30.10S
WASHINGTON *   CLOUDY    52  50  93 NE8       30.12R
$$

ABBREVIATIONS USED IN REMARKS
   TC - TEMPERATURES IN CELSIUS
  WCI - WIND CHILL INDEX
   HX - HEAT INDEX
  VSB - VISIBILITY
$$





USA.gov is the U.S. government's official web portal to all federal, state and local government web resources and services.